DW9936 Weather Reports


time (UTC)temp
C
wind
direction
speed
KPH
gust
KPH
rain 1hr
cm
rain 24hr
cm
rain mn
cm
humidity
%
barometer
mb
20260903213042 21 327 0.0 3.2 0.00 0.00 0.00 61 1020.0
20260903211531 21 324 0.0 6.4 0.00 0.00 0.00 61 1019.7
20260903210033 21 321 0.0 4.8 0.00 0.00 0.00 60 1019.6
20260903204530 21 348 0.0 4.8 0.00 0.00 0.00 59 1019.8
20260903203029 21 321 0.0 6.4 0.00 0.00 0.00 59 1019.8
20260903201529 22 325 1.6 9.7 0.00 0.00 0.00 58 1019.9
20260903200029 22 32 0.0 6.4 0.00 0.00 0.00 56 1019.9
20260903194528 22 319 1.6 9.7 0.00 0.00 0.00 55 1019.8
20260903193028 23 338 1.6 16.1 0.00 0.00 0.00 53 1019.7
20260903191537 23 34 0.0 9.7 0.00 0.00 0.00 51 1019.5
20260903190027 23 340 0.0 12.9 0.00 0.00 0.00 49 1019.1
20260903184526 24 347 1.6 14.5 0.00 0.00 0.00 48 1018.8
20260903183030 24 334 0.0 3.2 0.00 0.00 0.00 49 1018.7
20260903181526 24 333 0.0 3.2 0.00 0.00 0.00 48 1018.5
20260903180032 24 333 0.0 6.4 0.00 0.00 0.00 47 1018.4
20260903174525 24 332 0.0 8.0 0.00 0.00 0.00 47 1018.2
20260903173024 25 338 0.0 8.0 0.00 0.00 0.00 46 1018.1
20260903171530 25 303 0.0 6.4 0.00 0.00 0.00 46 1018.1
20260903170024 25 326 1.6 9.7 0.00 0.00 0.00 45 1018.2
20260903164523 25 330 0.0 6.4 0.00 0.00 0.00 44 1018.2
20260903163023 25 351 0.0 8.0 0.00 0.00 0.00 44 1018.0
20260903161522 26 26 0.0 3.2 0.00 0.00 0.00 44 1018.0
20260903160022 26 17 0.0 8.0 0.00 0.00 0.00 43 1018.0
20260903154521 26 294 3.2 9.7 0.00 0.00 0.00 42 1017.9
20260903153020 26 351 1.6 16.1 0.00 0.00 0.00 42 1017.6
20260903151518 26 360 0.0 8.0 0.00 0.00 0.00 42 1017.9
20260903150020 26 199 0.0 14.5 0.00 0.00 0.00 42 1017.8
20260903144520 27 126 1.6 14.5 0.00 0.00 0.00 41 1017.9
20260903143018 27 309 3.2 12.9 0.00 0.00 0.00 41 1017.9
20260903141517 27 355 0.0 6.4 0.00 0.00 0.00 40 1018.0
20260903140017 27 327 3.2 19.3 0.00 0.00 0.00 39 1018.0
20260903134516 27 360 0.0 16.1 0.00 0.00 0.00 40 1017.9
20260903133015 27 312 3.2 14.5 0.00 0.00 0.00 39 1017.8
20260903131517 27 316 0.0 16.1 0.00 0.00 0.00 39 1018.0
20260903130013 28 338 1.6 8.0 0.00 0.00 0.00 38 1018.0
20260903124512 27 288 4.8 19.3 0.00 0.00 0.00 38 1018.0
20260903123011 28 333 3.2 16.1 0.00 0.00 0.00 36 1018.3
20260903121521 28 323 3.2 12.9 0.00 0.00 0.00 39 1018.5
20260903120009 28 344 1.6 25.7 0.00 0.00 0.00 38 1018.5
20260903114506 28 319 3.2 12.9 0.00 0.00 0.00 38 1018.6
20260903113007 28 340 4.8 19.3 0.00 0.00 0.00 38 1018.7
20260903111501 27 335 4.8 19.3 0.00 0.00 0.00 37 1018.7
20260903110103 26 44 1.6 22.5 0.00 0.00 0.00 40 1018.9
20260903104558 26 43 3.2 12.9 0.00 0.00 0.00 39 1018.9
20260903103057 26 323 1.6 14.5 0.00 0.00 0.00 40 1019.0
20260903101553 26 325 1.6 16.1 0.00 0.00 0.00 41 1019.1
20260903100050 25 310 3.2 11.3 0.00 0.00 0.00 41 1019.3
20260903094547 25 326 1.6 9.7 0.00 0.00 0.00 46 1019.4
20260903093045 25 109 0.0 3.2 0.00 0.00 0.00 51 1019.7
20260903091545 25 241 0.0 6.4 0.00 0.00 0.00 51 1019.7
20260903090048 24 130 0.0 3.2 0.00 0.00 0.00 55 1019.9
20260903084541 24 148 0.0 6.4 0.00 0.00 0.00 54 1020.0
20260903083044 23 128 0.0 6.4 0.00 0.00 0.00 58 1020.1
20260903081533 23 106 0.0 4.8 0.00 0.00 0.00 59 1020.2
20260903080029 22 346 0.0 1.6 0.00 0.00 0.00 61 1020.4
20260903074526 21 346 0.0 0.0 0.00 0.00 0.00 61 1020.4
20260903073026 21 346 0.0 0.0 0.00 0.00 0.00 62 1020.3
20260903071527 21 347 0.0 0.0 0.00 0.00 0.00 62 1020.3
20260903070020 21 348 0.0 0.0 0.00 0.00 0.00 62 1020.3
20260903064516 20 347 0.0 0.0 0.00 0.00 0.00 64 1020.2
20260903063016 20 346 0.0 0.0 0.00 0.00 0.00 66 1020.1
20260903061509 18 346 0.0 0.0 0.00 0.00 0.00 69 1020.3
20260903060007 18 346 0.0 0.0 0.00 0.00 0.00 68 1020.3
20260903054511 18 346 0.0 0.0 0.00 0.00 0.00 69 1020.3
20260903053002 17 346 0.0 0.0 0.00 0.00 0.00 70 1020.1
20260903051559 17 346 0.0 0.0 0.00 0.00 0.00 69 1020.0
20260903050057 17 346 0.0 0.0 0.00 0.00 0.00 69 1020.0
20260903044559 17 346 0.0 0.0 0.00 0.00 0.00 70 1019.9
20260903043055 17 346 0.0 0.0 0.00 0.00 0.00 71 1019.7
20260903041609 17 346 0.0 0.0 0.00 0.00 0.00 73 1019.5
20260903040054 17 346 0.0 0.0 0.00 0.00 0.00 72 1019.7
20260903034553 17 346 0.0 0.0 0.00 0.00 0.00 72 1019.6
20260903033052 17 346 0.0 0.0 0.00 0.00 0.00 72 1019.6
20260903031551 17 346 0.0 0.0 0.00 0.00 0.00 71 1019.6
20260903030051 17 346 0.0 0.0 0.00 0.00 0.00 70 1019.6
20260903024549 17 346 0.0 0.0 0.00 0.00 0.00 69 1019.5
20260903023048 17 346 0.0 0.0 0.00 0.00 0.00 69 1019.5
20260903021546 17 346 0.0 0.0 0.00 0.00 0.00 68 1019.5
20260903020052 17 346 0.0 0.0 0.00 0.00 0.00 66 1019.6
20260903014605 18 346 0.0 0.0 0.00 0.00 0.00 66 1019.7
20260903013059 18 346 0.0 0.0 0.00 0.00 0.00 66 1019.8
20260903011610 17 346 0.0 0.0 0.00 0.00 0.00 67 1019.9
20260903010058 17 346 0.0 0.0 0.00 0.00 0.00 67 1019.8
20260903004542 17 346 0.0 0.0 0.00 0.00 0.00 67 1019.8
20260903003053 17 346 0.0 0.0 0.00 0.00 0.00 68 1019.8
20260903001553 17 346 0.0 0.0 0.00 0.00 0.00 69 1019.8
20260903000046 17 346 0.0 0.0 0.00 0.00 0.00 67 1019.8
20260902234542 17 346 0.0 0.0 0.00 0.00 0.00 67 1019.8
20260902233037 17 346 0.0 0.0 0.00 0.00 0.00 65 1019.7
20260902231544 18 346 0.0 0.0 0.00 0.00 0.00 64 1019.8
20260902230033 18 346 0.0 0.0 0.00 0.00 0.00 63 1019.7
20260902224530 18 346 0.0 0.0 0.00 0.00 0.00 63 1019.7
20260902223038 18 346 0.0 0.0 0.00 0.00 0.00 62 1019.7
20260902221532 18 346 0.0 0.0 0.00 0.00 0.00 62 1019.7
20260902220033 18 346 0.0 0.0 0.00 0.00 0.00 62 1019.7
20260902214527 18 346 0.0 0.0 0.00 0.00 0.00 62 1019.7